Location: Martley
(52.2333°N, 2.3667°W)
Time: 14:36:51
(UTC+00:00)

Envisat - Pass Details

Date: 11 December 2019
Orbit: 764 x 766 km, 98.1° (Epoch: 23 January)

Event Time Altitude Azimuth Distance (km) Brightness Sun altitude
Rises 07:19:37 0° 14° (NNE) 3,248 6.1 -7.0°
Reaches altitude 10° 07:21:56 10° 13° (NNE) 2,317 5.3 -6.7°
Maximum altitude 07:27:03 83° 287° (WNW) 779 3.0 -6.0°
Drops below altitude 10° 07:32:07 10° 200° (SSW) 2,299 5.6 -5.4°
Sets 07:34:25 0° 199° (SSW) 3,221 6.4 -5.1°
